Location: Allen Lane School
(37.8198°N, 89.7382°W)
Time: 14:27:21
(UTC+00:00)

Cosmos 44 - Pass Details

Date: 12 July 2022
Orbit: 595 x 766 km, 65.1° (Epoch: 07 August)

Event Time Altitude Azimuth Distance (km) Brightness Sun altitude
Exits shadow 03:13:28 18° 83° (E) 1,566 4.8 -17.9°
Drops below altitude 10° 03:15:19 10° 61° (ENE) 2,016 5.6 -18.2°
Sets 03:17:58 0° 46° (NE) 2,901 6.6 -18.5°
